User: anonymous   Login
Location: Unspecified
(0.0000°N, 0.0000°E)
Time: 11:50:55
(UTC+00:00)
Language:

HAVELSAT - Orbit

View from above orbital plane
View from above orbital plane
View from above satellite
View from above satellite

Ground track
Ground track

The orbit data is extracted from the following two-line orbital elements,

1 42700U 98067LH  18169.10223311  .00022162  00000-0  17565-3 0  9991
2 42700  51.6359 350.0991 0003846 244.5534 115.5067 15.71218376 62160
Epoch (UTC): 18 June 2018 02:27:12
Eccentricity: 0.0003846
inclination: 51.6359°
perigee height: 353 km
apogee height: 358 km
right ascension of ascending node: 350.0991°
argument of perigee: 244.5534°
revolutions per day: 15.71218376
mean anomaly at epoch: 115.5067°
orbit number at epoch: 6216

The dashed part of the orbit path shows where the satellite is in the earth's shadow,  

DLR